Regional Weather Roundup
Issued by NWS Wakefield, VA

Home | Current Version | Previous Version | Graphics & Text | Print | Product List | Glossary On
Versions: 1 2 3 4 5 6 7 8 9 10 11 12 13 14 15 16 17 18 19 20 21 22 23 24 25 26 27 28 29 30 31 32 33 34 35 36 37 38 39 40 41 42 43 44 45 46 47 48 49 50
000
ASUS41 KAKQ 291810
RWRAKQ

REGIONAL WEATHER ROUNDUP
NATIONAL WEATHER SERVICE WAKEFIELD VA
200 PM EDT MON SEP 29 2014

Note: "fair" indicates few or no clouds below 12,000 feet with no
significant weather and/or obstructions to visibility. * = Denotes
station may not report precipitation (e.g., rain,snow,etc.),
thunder or fog.

VAZ042-051-052>054-056-291900-
NORTHERN VIRGINIA

CITY           SKY/WX    TMP DP  RH WIND       PRES   REMARKS
WASH NATIONAL  CLOUDY    72  62  71 SW3       29.97F
DULLES         CLOUDY    68  62  81 CALM      29.98F
FORT BELVOIR   CLOUDY    68  63  82 VRB1      30.00S
QUANTICO       LGT RAIN  69  63  81 S5        29.98F
FREDERICKSBRG* CLOUDY    70  64  82 W3        29.97F
STAFFORD*      LGT RAIN  68  68 100 CALM      30.02F
WARRENTON      LGT RAIN  71  67  89 CALM      29.98F
CULPEPER*      LGT RAIN  70  63  78 CALM      29.99F
MANASSAS*      NOT AVBL
LEESBURG*      CLOUDY    72  63  73 CALM      29.98F
WINCHESTER     CLOUDY    73  55  53 CALM      29.98F
FRONT ROYAL*   CLOUDY    73  59  60 CALM      29.97F
LURAY*         CLOUDY    77  61  57 S3        29.98F
$$

VAZ048-049-060>072-079>083-291900-
CENTRAL AND SOUTH CENTRAL VIRGINIA...AND NORTH CENTRAL NORTH CAROLINA

CITY           SKY/WX    TMP DP  RH WIND       PRES   REMARKS
RICHMOND       LGT RAIN  70  62  76 NW6       29.99F
CHESTERFIELD*  CLOUDY    68  57  68 NW8       30.01F
PETERSBURG*    LGT RAIN  68  63  83 W3        30.00F
HANOVER        CLOUDY    68  64  87 SW6       30.01F
TAPPAHANNOCK*  LGT RAIN  68  62  80 W6        30.00F
CHARLOTTSVILLE CLOUDY    68  64  87 S5        30.00F
ORANGE*        CLOUDY    66  63  88 CALM      30.01F
LOUISA*        CLOUDY    70  64  83 CALM      29.99F
FARMVILLE*     LGT RAIN  70  63  78 CALM      29.98F
CREWE*         CLOUDY    68  62  81 W3        30.00F
FORT PICKETT*  CLOUDY    67  62  83 CALM      30.00F
LUNENBURG*     CLOUDY    69  62  78 NW3       29.99F
SOUTH HILL*    CLOUDY    72  64  78 CALM      30.05F
LAWRENCEVILLE* CLOUDY    67  63  85 CALM      29.99F
ROANOKE RAPIDS CLOUDY    68  63  83 CALM      30.01F
RALEIGH        CLOUDY    72  59  63 CALM      30.01F
$$

VAZ088>098-291900-
SOUTHEAST VIRGINIA

CITY           SKY/WX    TMP DP  RH WIND       PRES   REMARKS
NORFOLK        CLOUDY    74  61  63 NW5       29.98F
VIRGINIA BEACH CLOUDY    76  63  64 NW7       29.97F
NORFOLK NAVAL  CLOUDY    74  64  71 W7        29.99F
WEST POINT*    CLOUDY    71  61  68 W6        30.01F
NEWPORT NEWS   CLOUDY    76  63  64 NW7       29.99F
LANGLEY AFB    CLOUDY    73  66  79 N7        29.99F
FORT EUSTIS    CLOUDY    70  69  96 NW7       29.98F
WILLIAMSBURG*  CLOUDY    73  64  73 NW6       30.00F
HR EXEC AP*    CLOUDY    72  64  78 NW5       30.00F
FRANKLIN*      CLOUDY    72  61  68 N5        29.99F
WAKEFIELD      LGT RAIN  70  61  73 CALM      30.00F
$$

VAZ020-022-025-037-045-291900-
WEST CENTRAL AND SOUTHWEST VIRGINIA

CITY           SKY/WX    TMP DP  RH WIND       PRES   REMARKS
STAUNTON*      CLOUDY    74  55  51 CALM      30.03F
HOT SPRINGS VA CLOUDY    62  42  47 CALM      30.11F
LYNCHBURG      CLOUDY    68  63  84 CALM      30.02F
DANVILLE       LGT RAIN  67  61  81 W8        30.02F
SOUTH BOSTON*  NOT AVBL
MARTINSVILLE   CLOUDY    69  67  94 CALM      30.05F
ROANOKE        CLOUDY    70  61  73 VRB3      30.03F
BLACKSBURG     CLOUDY    68  64  88 CALM      30.07F
DUBLIN*        CLOUDY    68  64  85 CALM      30.06F
MARION*        CLOUDY    69  60  73 W3        30.09F
HILLSVILLE*    CLOUDY    65  59  82 CALM      30.08F
RICHLANDS*     CLOUDY    69  60  72 CALM      30.08F
WISE*          PTSUNNY   70  55  60 CALM      30.09F
ABINGDON*      CLOUDY    71  62  74 CALM      30.06F
$$

MDZ021>025-VAZ099-100-291900-
SOUTHERN MARYLAND AND THE DELMARVA PENINSULA

CITY           SKY/WX    TMP DP  RH WIND       PRES   REMARKS
PATUXENT RIVER LGT RAIN  70  63  78 W5        29.97F
BAY BRIDGE APT   N/A     72  61  68 S5        29.98F
LEONARDTOWN    CLOUDY    68  63  83 CALM      30.00F
DOVER          CLOUDY    72  63  73 SW8       29.96F
GEORGETOWN     CLOUDY    74  62  66 VRB6      29.98F
EASTON         CLOUDY    73  64  73 SW6       30.01F
CAMBRIDGE      CLOUDY    72  61  68 W3        29.98F
SALISBURY      CLOUDY    77  62  59 W7        29.97F
OCEAN CITY     CLOUDY    75  63  66 SE6       29.97F
WALLOPS ISLAND CLOUDY    77  63  61 NW9       29.98F
ACCOMACK*      CLOUDY    72  61  68 N6        29.97F
$$

NCZ012>017-030>032-291900-
EASTERN NORTH CAROLINA

CITY           SKY/WX    TMP DP  RH WIND       PRES   REMARKS
ELIZABETH CITY CLOUDY    74  63  68 N5        29.97F
AHOSKIE*       CLOUDY    69  60  72 NW3       30.00F
EDENTON*       CLOUDY    73  64  72 N6        29.99S
CURRITUCK*     CLOUDY    74  60  60 NE8       29.98F
KILL DEVIL HLS CLOUDY    74  61  64 N7        29.96F
MANTEO         CLOUDY    73  65  75 N6        29.98F
CAPE HATTERAS  CLOUDY    72  67  84 VRB6      29.97F
TARBORO*       LGT RAIN  70  63  78 CALM      30.01F
GOLDSBORO      CLOUDY    71  66  85 CALM      29.98F
WASHINGTON     CLOUDY    73  63  71 N6        29.99F
GREENVILLE     CLOUDY    72  64  78 N6        30.01F
NEW BERN       CLOUDY    77  65  66 N8        29.98F
WILMINGTON     CLOUDY    75  65  70 N8        29.96F
$$

VAZ048-291900-
ELSEWHERE

CITY           SKY/WX    TMP DP  RH WIND       PRES   REMARKS
HARRISBURG PA  CLOUDY    76  60  57 CALM      29.94F
BALTIMORE      CLOUDY    69  63  81 S3        29.96F
ANNAPOLIS      CLOUDY    72  63  73 S5        29.96F
ANDREWS AFB    CLOUDY    71  61  71 S5        29.97F
WILMINGTON DE  CLOUDY    72  65  78 SE3       29.97F
PHILADELPHIA   CLOUDY    75  61  61 SW7       29.96F
WILDWOOD NJ*   CLOUDY    72  57  60 W3        29.98F
ATLANTIC CITY  CLOUDY    76  59  55 W7        29.96F
HENDERSON NC   CLOUDY    68  63  82 CALM      30.01F
GREENSBORO     LGT RAIN  66  63  90 CALM      30.02F
ROCKY MOUNT    CLOUDY    70  59  68 N5        30.01F
FAYETTEVILLE   CLOUDY    70  66  87 NE3       30.00F
CHARLOTTE      LGT RAIN  67  61  81 N5        30.04F
$$

VAZ100-291900-
MARINE

STATION/POSITION TIME  TEMP    WIND        PRES    WAVE   SWELL
                       AIR SEA DIR/SP/G            HT/PER HT/PER
                 (UTC) (F)     (DEG/KT/KT) (MB)    (FT/S) (FT/S)
44066 TX TWR #4  1800   69 71  220/  6/  8 1014.5F   2/ 7   2/ 7
CAPE MAY NJ      1800   70 73  240/  3/  4 1014.5F
LEWES DE         1800   71 70   40/  1/  1 1014.8F
15NM E FENWICK I 1800   72 71              1014.8F   2/ 8
OCEAN-CITY-INLET 1800   73 71  140/  4/  6 1014.5F
WACHAPREAGUE VA  1800   74 72  320/  2/  5 1014.8F
THOMAS POINT MD  1800   69 71  170/  9/ 10 1015.7F
GOOSES REEF MD   1800   70     210/  6/  8 1015.9F
COVE POINT MD    1800   70     260/  4/  5 1015.0F
SOLOMONS ISLAND  1800      72                N/A
BISHOPS HEAD MD  1800   71 73  250/  3/  4 1014.9F
PINEY POINT MD   1800          310/  6/  7   N/A
POTOMAC MD       1800   71     320/  8/  8 1014.7F
CAMBRIDGE MD     1800   71 71  230/  4/  5 1014.9F
LEWISETTA VA     1800   70 71  270/  4/  6 1014.8F
RAPPAHANNOCK LGT 1800           20/  4/  5 1015.6F
STINGRAY PT      1800   71     320/  6/  8   N/A
YORK RVR RNG VA  1800   71     340/  8/  8 1014.8F
YORKTOWN VA      1800   70 73  300/  8/  9 1015.2S
JAMESTOWN VA     1800   68     310/  6/  8   N/A
DOMINION TERM VA 1800   70     310/  9/ 11 1015.4F
KIPTOPEKE VA     1800      76  350/  4/  5   N/A
CHES BAY BRIDGE  1800   71 72  330/  4/  5 1014.7S
CHESAPEAKE LGHT  1700   71     330/  7/  8 1016.3F
WILLOUBY STN VA  1800   72     290/  7/  8 1014.0F
S CRANEY ISL VA  1800          270/  7/  9 1015.1F
CAPE HENRY BUOY  1800      73                N/A     2/ 8
1ST LANDING BUOY 1800   71     340/  4/  6 1014.9F
CAPE CHARLES BUO 1800      72                N/A     2/ 8   2/ 8
OFFSHORE WE BUOY 1800      73                N/A     2/ 8   2/ 8
64NM E OF VA BCH 1800   71 71   10/ 10/ 10 1014.4F   3/ 8   2/ 8
DUCK PIER NC     1800   70 73   10/  9/ 10 1014.3F
44100 DUCK FRF   1800      72                N/A     2/ 8
44056 DUCK FRF   1800                        N/A     2/ 8
OREGON INLET NC  1800   73 73  350/  8/ 13 1014.9F
DIAMOND SHLS NC  1800   75     360/ 12/ 16 1014.3F   3/ 8   2/ 8
CAPE LOOKOUT NC  1700   75     360/ 11/ 13 1014.9F
$$



USA.gov is the U.S. government's official web portal to all federal, state and local government web resources and services.